DateTimeUTC,F1_A11,F1_S11,BsB_S11,BsG_S11,BsR_S11,BbsB_S11,BbsG_S11,BbsR_S11,BaB_A11,BaG_A11,BaR_A11,Tu_S11,T_S11,Uu_S11,U_S11,P_S11,T1_A11
2021-03-06T18:00:00Z,00000200,21000000,,,,,,,-000.03,-000.32,-000.20,17.2,24.5,00.6,00.4,0656.6,30.9
2021-03-06T18:01:00Z,00000200,21000000,,,,,,,-000.25,-000.15,0000.02,17.2,24.5,00.6,00.4,0656.6,30.9
2021-03-06T18:02:00Z,00000200,21000000,,,,,,,-000.33,-000.16,0000.24,17.2,24.5,00.6,00.4,0656.6,30.9
2021-03-06T18:03:00Z,00000200,61000000,,,,,,,0000.04,-000.11,-000.17,17.2,24.5,00.6,00.4,0656.6,30.9
2021-03-06T18:04:00Z,00000200,41000000,-000.37,0000.23,0000.05,-000.07,0000.04,-000.06,0000.07,0000.44,-000.02,17.3,24.3,00.4,00.3,0657.6,30.9
2021-03-06T18:05:00Z,00000200,01000000,0000.23,0000.35,0000.05,-000.33,-000.06,-000.04,-000.23,-000.33,-000.07,17.3,24.2,00.6,00.4,0657.6,30.9
2021-03-06T18:06:00Z,00000200,01000000,0000.01,0000.07,0000.21,-000.60,0000.06,0000.20,-000.05,-000.12,0000.34,17.3,24.2,00.4,00.3,0657.6,30.9
2021-03-06T18:07:00Z,00000200,01000000,0000.26,0000.20,0000.24,-000.04,-000.06,0000.27,-000.13,-000.11,-000.40,17.3,24.2,00.4,00.3,0657.6,30.9
2021-03-06T18:08:00Z,00000200,01000000,0000.18,0000.21,0000.13,0000.04,-000.03,0000.05,0000.39,0000.44,0000.44,17.3,24.2,00.4,00.3,0657.6,30.9
2021-03-06T18:09:00Z,00000200,01000000,-000.09,-000.06,0000.07,-000.01,-000.06,0000.21,0000.14,-000.22,-000.09,17.3,24.2,00.5,00.3,0657.6,30.9
2021-03-06T18:10:00Z,00000200,01000000,-000.20,0000.15,0000.08,0000.16,-000.19,0000.06,-000.09,0000.03,-000.13,17.3,24.2,00.4,00.2,0657.7,30.9
2021-03-06T18:11:00Z,00000200,01000000,0000.22,-000.09,0000.10,0000.22,-000.19,-000.01,-000.04,-000.09,-000.09,17.3,24.2,00.4,00.2,0657.7,30.9
2021-03-06T18:12:00Z,00000200,01000000,0000.03,0000.05,0000.06,-000.22,-000.02,0000.01,-000.09,0000.27,0000.11,17.2,24.2,00.4,00.2,0657.7,30.9
2021-03-06T18:13:00Z,00000200,01000000,-000.09,0000.35,0000.14,-000.05,0000.06,0000.28,-000.10,-000.36,0000.08,17.3,24.2,00.3,00.2,0657.7,30.9
2021-03-06T18:14:00Z,00000200,01000000,-000.48,0000.20,0000.14,-000.16,0000.09,0000.11,0000.31,0000.02,-000.12,17.3,24.1,00.3,00.2,0657.7,30.9
2021-03-06T18:15:00Z,00000200,01000000,0000.06,0000.20,-000.18,0000.05,-000.12,0000.06,-000.13,0000.33,0000.40,17.3,24.1,00.3,00.2,0657.7,30.9
2021-03-06T18:16:00Z,00000200,01000000,-000.07,0000.31,-000.10,0000.19,-000.11,0000.20,0000.04,0000.09,0000.14,17.3,24.1,00.2,00.2,0657.7,30.9
2021-03-06T18:17:00Z,00000200,01000000,-000.17,0000.33,-000.08,0000.19,0000.06,0000.16,0000.25,-000.06,-000.27,17.4,24.2,00.3,00.2,0657.7,30.9
2021-03-06T18:18:00Z,00000200,01000000,-000.16,0000.25,0000.16,-000.13,-000.08,0000.26,-000.21,0000.31,0000.34,17.4,24.2,00.2,00.1,0657.7,30.9
2021-03-06T18:19:00Z,00000200,01000000,0000.28,0000.28,0000.15,-000.23,0000.06,0000.16,0000.34,-000.37,0000.12,17.5,24.2,00.2,00.2,0657.7,31.0
2021-03-06T18:20:00Z,00000200,01000000,0000.03,-000.10,0000.16,0000.51,0000.22,-000.04,-000.07,-000.11,-000.48,17.5,24.2,00.2,00.1,0657.7,30.9
2021-03-06T18:21:00Z,00000200,01000000,-000.05,0000.19,0000.38,-000.26,-000.10,0000.08,0000.18,0000.52,0000.47,17.4,24.2,00.2,00.2,0657.7,30.9
2021-03-06T18:22:00Z,00000200,01000000,-000.35,0000.39,0000.48,0000.20,-000.03,0000.13,-000.17,-000.34,-000.54,17.4,24.2,00.2,00.1,0657.7,30.9
2021-03-06T18:23:00Z,00000200,01000000,0000.48,0000.29,0000.25,-000.20,0000.09,0000.01,-000.23,0000.33,0000.21,17.4,24.2,00.1,00.1,0657.7,30.9
2021-03-06T18:24:00Z,00000200,01000000,-000.37,0000.02,0000.20,0000.02,-000.15,0000.05,0000.40,-000.11,0000.04,17.4,24.2,00.2,00.1,0657.6,30.9
2021-03-06T18:25:00Z,00000200,01000000,0000.32,0000.41,-000.13,-000.07,0000.06,0000.08,-000.09,0000.43,0000.16,17.4,24.2,00.1,00.1,0657.7,30.9
2021-03-06T18:26:00Z,00000200,01000000,0000.86,0000.26,0000.29,0000.42,0000.12,0000.15,0000.24,0000.18,0000.38,17.4,24.2,00.2,00.1,0657.6,30.9
2021-03-06T18:27:00Z,00000200,01000000,0000.17,0000.10,-000.07,0000.10,-000.18,-000.04,0000.33,0000.08,-000.12,17.4,24.2,00.2,00.2,0657.6,30.9
2021-03-06T18:28:00Z,00000200,01000000,-000.20,0000.20,0000.08,-000.18,0000.09,-000.09,-000.17,-000.26,0000.22,17.4,24.2,00.3,00.2,0657.6,30.9
2021-03-06T18:29:00Z,00000200,01000000,0000.50,0000.35,-000.03,0000.09,-000.10,0000.20,0000.33,-000.03,0000.26,17.4,24.2,00.3,00.2,0657.6,30.9
2021-03-06T18:30:00Z,00000200,01000000,0000.21,0000.32,0000.28,0000.25,0000.19,0000.11,-000.03,0000.40,0000.18,17.4,24.2,00.3,00.2,0657.6,30.9
2021-03-06T18:31:00Z,00000200,01000000,-000.03,0000.12,0000.35,0000.08,-000.23,0000.09,0000.55,0000.08,-000.02,17.5,24.2,00.3,00.2,0657.6,30.9
2021-03-06T18:32:00Z,00000200,01000000,0000.57,-000.08,0000.40,0000.25,0000.12,0000.31,0000.37,0000.62,0000.11,17.5,24.2,00.4,00.2,0657.6,30.9
2021-03-06T18:33:00Z,00000200,01000000,-000.25,0000.33,0000.11,0000.03,0000.12,-000.22,-000.22,0000.06,0000.15,17.5,24.2,00.4,00.3,0657.6,30.9
2021-03-06T18:34:00Z,00000200,01000000,0000.23,-000.01,0000.14,-000.39,-000.03,0000.39,0000.20,0000.27,0000.08,17.6,24.2,00.4,00.3,0657.7,31.0
2021-03-06T18:35:00Z,00000200,01000000,-000.24,0000.35,0000.19,-000.31,0000.06,-000.02,0000.15,-000.02,0000.05,17.6,24.2,00.3,00.2,0657.6,31.0
2021-03-06T18:36:00Z,00000200,01000000,-000.21,0000.18,0000.38,-000.21,-000.18,-000.11,0000.48,0000.23,0000.32,17.6,24.3,00.4,00.2,0657.6,31.0
2021-03-06T18:37:00Z,00000200,01000000,-000.21,0000.39,0000.13,0000.28,0000.27,-000.06,-000.14,0000.17,0000.03,17.6,24.3,00.4,00.3,0657.6,31.0
2021-03-06T18:38:00Z,00000200,01000000,0000.44,-000.06,-000.17,-000.28,-000.04,-000.03,0000.12,0000.02,-000.08,17.6,24.3,00.4,00.3,0657.6,31.0
2021-03-06T18:39:00Z,00000200,01000000,0000.08,0000.26,0000.12,0000.12,-000.01,0000.03,0000.23,0000.23,0000.34,17.5,24.2,00.4,00.3,0657.6,31.0
2021-03-06T18:40:00Z,00000200,01000000,-000.24,0000.20,-000.04,-000.05,0000.03,-000.10,-000.07,-000.04,-000.02,17.5,24.2,00.4,00.3,0657.6,31.0
2021-03-06T18:41:00Z,00000200,01000000,-000.08,0000.18,-000.04,-000.39,0000.08,0000.11,0000.43,0000.21,0000.08,17.5,24.2,00.4,00.3,0657.6,31.0
2021-03-06T18:42:00Z,00000200,01000000,0000.92,0000.21,0000.18,0000.33,-000.07,0000.18,0000.11,0000.20,0000.03,17.5,24.2,00.5,00.3,0657.6,30.9
2021-03-06T18:43:00Z,00000200,01000000,0000.71,0000.21,0000.23,-000.30,0000.26,0000.14,0000.17,-000.05,0000.17,17.5,24.2,00.5,00.4,0657.5,31.0
2021-03-06T18:44:00Z,00000200,01000000,0000.36,0000.07,0000.21,0000.19,-000.16,0000.25,0000.49,0000.79,0000.48,17.5,24.2,00.5,00.3,0657.6,31.0
2021-03-06T18:45:00Z,00000200,01000000,-000.23,0000.26,0000.12,0000.23,0000.01,-000.01,0000.33,0000.16,0000.17,17.5,24.2,00.5,00.4,0657.6,31.0
2021-03-06T18:46:00Z,00000200,01000000,0000.79,0000.75,0000.24,0000.15,-000.06,0000.08,-000.07,0000.08,0000.22,17.5,24.2,00.6,00.4,0657.6,30.9
2021-03-06T18:47:00Z,00000200,01000000,0000.99,0000.45,0000.00,0000.52,-000.00,0000.18,0000.29,0000.42,0000.15,17.5,24.2,00.6,00.4,0657.5,30.9
2021-03-06T18:48:00Z,00000200,01000000,0000.32,0000.21,0000.13,-000.18,0000.07,-000.01,0000.17,0000.18,0000.32,17.5,24.2,00.7,00.4,0657.5,30.9
2021-03-06T18:49:00Z,00000200,01000000,0000.13,0000.20,0000.04,0000.18,-000.25,0000.12,0000.14,-000.02,-000.14,17.5,24.2,00.6,00.4,0657.6,30.9
2021-03-06T18:50:00Z,00000200,01000000,-000.01,0000.10,0000.51,0000.01,0000.02,0000.06,0000.19,0000.12,0000.25,17.5,24.2,00.7,00.4,0657.5,30.9
2021-03-06T18:51:00Z,00000200,01000000,0000.44,0000.14,0000.36,0000.15,0000.24,0000.01,0000.04,-000.07,-000.19,17.5,24.2,00.8,00.5,0657.6,30.9
2021-03-06T18:52:00Z,00000200,01000000,0000.13,0000.21,0000.18,0000.34,0000.23,0000.02,0000.19,0000.10,0000.37,17.4,24.2,00.6,00.4,0657.6,30.9
2021-03-06T18:53:00Z,00000200,01000000,0000.02,0000.18,0000.23,0000.29,-000.12,-000.17,0000.39,0000.34,-000.19,17.4,24.2,00.6,00.4,0657.5,30.9
2021-03-06T18:54:00Z,00000200,01000000,-000.08,0000.07,0000.08,0000.10,0000.02,-000.13,0000.11,0000.29,0000.64,17.4,24.2,00.6,00.4,0657.5,30.9
2021-03-06T18:55:00Z,00000200,01000000,0000.60,0000.19,-000.11,0000.15,-000.13,0000.21,-000.11,-000.31,-000.30,17.4,24.2,00.8,00.5,0657.6,30.9
2021-03-06T18:56:00Z,00000200,01000000,0000.15,0000.13,0000.26,0000.30,0000.08,-000.01,0000.18,0000.33,0000.19,17.4,24.2,00.7,00.5,0657.6,30.9
2021-03-06T18:57:00Z,00000200,41000000,,,,,,,0000.12,-000.11,-000.07,17.4,24.2,01.2,00.8,0657.6,30.9
2021-03-06T18:58:00Z,00000200,61000000,,,,,,,-000.10,-000.01,-000.25,17.2,24.3,00.6,00.4,0656.6,30.9
2021-03-06T18:59:00Z,00000200,21000000,,,,,,,-000.13,-000.27,0000.28,17.2,24.4,00.6,00.4,0656.6,30.9
